IRNSS-1D

Last updated on Jan. 29, 2020, 4:37 a.m. UTC

1 40547U 15018A   20028.74274675 -.00000279  00000-0  00000+0 0  9997
2 40547  28.7605 279.6003 0017107 180.1118  46.8591  1.00267269 17861
UTC
Height (km)
Latitude
Longitude
Inclination
Orbital Period
UTC large
Height (km)
Speed (km/s)
/
Latitude / Longitude
Inclination (degrees)
Orbital Period (minutes)
Azimuth
Elevation
Range (km)
Doppler Factor
iOS Compass Heading
iOS Angle

Next 30 passes for location: Hong Kong

Rise time Rise Azimuth (degrees) Set time Set Azimuth (degrees) Duration Max altitude (degrees)

No matching passes for this satellites